Dewpoint
60 39 44 45 43 31 16 17 8 11 15 9 5 5 6 10 8 5 5 10 10 40 39 42 40 44 43 44 42 51 58 47 57 41 51 63 67 66 67 67 67 66 67 67 68 69 70 71 71 70 69 69 70 70 70 70 71 71 70 71 71 72 73 72 73 73 73 73 73 73 72 72 72 72 72 72 72 72 71 71 71 71 71 70 71 70 70 70 70 70 71 70 70 70 70 70 70
36 40 43 47 32 14 13 14 12 9 8 8 6 4 5 6 16 6 5 10 17 37 43 41 45 49 55 52 52 50 55 60 61 63 66 67 67 68 68 68 67 66 66 67 67 68 68 70 71 70 70 70 70 70 70 70 71 71 71 71 72 72 73 73 73 72 73 73 73 73 73 72 72 72 72 72 72 72 71 71 71 71 71 71 71 70 70 70 70 70 70 70 70 70 70 70 70
35 36 28 26 24 14 18 13 7 9 6 6 5 4 6 7 6 4 11 20 39 48 45 48 52 51 50 51 48 48 56 60 62 63 65 68 67 69 69 68 67 66 66 67 66 67 68 70 71 71 70 69 70 70 70 70 71 71 71 71 72 72 72 73 73 73 73 73 73 73 72 72 72 72 72 72 72 72 71 71 71 71 71 70 70 70 69 69 69 69 69 70 70 70 69 69 69
43 40 31 18 12 14 12 11 10 6 4 4 5 3 3 6 4 16 29 35 44 47 48 50 48 56 55 46 54 53 58 60 62 63 65 65 66 69 69 68 68 66 67 66 66 66 69 71 71 71 70 70 69 70 70 70 71 71 71 71 72 72 73 73 73 73 73 73 73 73 73 72 72 72 72 72 72 71 71 70 70 70 69 69 69 69 69 68 68 68 68 67 67 68 68 68 69
33 30 28 14 13 17 10 11 7 5 3 3 3 2 3 5 8 13 39 43 48 49 49 52 53 57 59 57 58 51 60 62 61 62 63 66 68 69 68 68 66 66 66 66 65 67 69 71 71 71 70 70 69 70 69 69 71 71 71 72 73 73 73 73 73 73 73 73 73 72 72 72 72 72 72 72 71 71 71 71 70 70 70 69 69 70 69 68 68 68 68 67 67 68 69 68 68
26 24 22 22 11 22 13 9 11 6 5 3 -0 -1 8 8 6 14 27 29 37 39 49 51 48 53 51 60 60 58 61 58 62 62 65 67 68 69 68 68 66 65 65 66 66 67 68 71 71 71 70 70 70 69 69 70 70 71 71 72 72 73 73 73 73 73 73 73 73 72 73 72 72 72 71 71 71 71 70 70 70 69 69 69 69 68 68 68 68 67 67 67 68 69 68 67 68
20 19 15 14 14 13 6 3 0 -2 -1 0 -2 -3 3 13 14 11 21 23 42 43 46 49 52 56 53 59 60 63 63 63 62 63 65 68 68 68 68 67 66 66 66 66 66 67 68 72 72 71 71 70 70 69 70 69 70 71 72 72 72 72 72 73 73 72 72 72 73 72 72 72 72 72 71 71 71 71 70 70 70 69 69 68 68 68 68 68 67 67 67 68 68 68 69 69 69
29 22 15 7 3 12 3 -2 -2 -1 -4 4 2 -2 3 13 11 11 13 14 28 44 48 50 51 49 60 59 56 64 64 63 63 65 67 68 69 69 68 67 66 66 65 66 67 67 72 72 72 71 71 70 70 69 69 70 70 71 71 71 72 73 73 73 72 73 73 73 72 72 72 72 72 71 71 71 71 71 70 71 70 70 70 69 69 69 68 67 67 67 67 67 67 68 69 69 69
17 15 23 10 4 12 3 -3 -4 -3 -4 11 7 11 30 16 13 8 5 15 16 22 24 49 49 48 54 57 59 64 65 65 64 67 67 68 69 69 68 66 65 65 64 65 67 70 69 72 72 71 71 70 70 70 70 69 70 71 71 71 72 73 73 72 72 73 72 72 72 72 72 72 71 71 71 71 71 70 69 69 68 68 68 67 67 67 67 67 67 68 68 67 68 69 69 70 70
16 14 14 6 1 3 6 -4 1 -3 -2 2 -1 4 7 11 8 6 6 5 12 13 24 45 50 46 56 57 59 62 64 65 66 65 67 69 68 68 69 68 67 65 65 65 68 68 69 71 71 71 71 70 70 70 70 70 70 71 71 72 72 73 73 73 73 72 72 72 72 72 72 71 71 70 69 69 69 69 68 68 68 68 66 67 68 67 67 67 67 68 68 68 68 69 69 70 70
14 9 17 9 8 5 3 -1 -6 -2 2 1 4 2 5 2 2 3 3 1 2 8 23 46 48 50 53 58 61 67 67 66 65 66 68 67 68 68 67 68 67 67 65 66 68 67 69 69 72 71 71 71 71 71 71 71 71 72 72 72 72 72 73 73 73 73 72 72 72 71 71 70 70 70 70 70 70 69 69 69 68 68 67 66 67 67 66 66 66 67 68 68 69 69 70 70 70
11 11 10 6 4 2 -6 -6 -4 -2 1 4 -0 1 5 9 9 7 8 7 6 10 17 42 46 51 54 58 61 66 68 67 67 68 68 68 67 68 68 67 66 67 67 68 68 68 68 69 69 71 71 71 71 71 71 71 72 72 72 72 72 72 72 73 73 72 72 72 72 71 71 71 70 70 70 69 69 69 69 69 69 69 67 67 67 67 66 66 67 68 68 68 69 69 70 70 70
12 11 8 1 -2 -1 -2 0 -0 1 2 -1 -1 3 12 12 11 11 11 10 7 5 13 41 52 51 55 58 64 67 67 68 68 68 69 68 68 67 68 67 67 68 68 69 67 66 68 68 67 68 70 71 71 71 71 71 71 71 71 71 72 72 72 72 72 72 72 72 72 71 71 70 70 70 70 70 69 69 68 68 69 69 68 67 66 67 67 67 68 68 68 68 68 69 70 70 70
8 13 10 5 1 5 4 1 -3 4 -6 -1 4 12 11 10 10 12 19 18 11 5 17 42 53 50 58 61 64 65 66 68 68 69 69 69 69 68 68 68 69 67 69 68 66 66 67 66 68 68 69 69 69 70 70 70 70 70 71 71 71 71 72 72 72 72 72 72 71 71 71 71 70 70 69 69 69 69 69 69 69 69 69 68 67 67 67 67 67 67 67 68 68 69 70 70 69
9 14 12 8 2 7 -0 0 -3 -1 -10 6 11 10 10 13 14 24 26 21 10 12 26 46 52 51 57 56 61 63 67 68 69 69 69 69 69 68 69 68 69 69 68 67 66 65 65 65 67 69 69 68 69 69 69 69 70 70 70 70 70 71 72 72 72 72 72 71 71 71 71 71 71 70 70 69 69 68 68 69 69 69 69 69 68 68 67 68 68 68 68 68 68 70 70 70 69
14 17 11 11 3 5 -1 1 1 -0 -7 6 10 11 11 16 43 43 39 32 13 38 49 46 53 49 53 51 60 64 67 68 69 69 69 69 69 69 68 68 68 69 68 67 67 65 66 66 68 68 68 68 69 69 69 68 69 69 69 69 70 70 71 71 71 71 71 71 71 71 71 71 71 70 70 70 69 69 69 68 69 68 68 69 69 68 68 68 68 68 69 68 69 69 70 69 69
23 16 12 11 8 1 -1 2 1 -6 3 8 11 11 12 27 51 54 53 46 39 40 41 50 53 59 57 53 62 66 68 69 69 69 68 68 68 67 67 67 67 67 67 67 67 67 68 69 68 68 68 68 69 69 68 68 69 68 68 68 69 70 71 71 71 70 70 71 71 71 71 70 70 70 71 69 70 69 69 69 68 69 69 69 69 69 68 68 68 68 67 67 68 69 70 69 69
17 14 12 11 3 0 1 1 -1 4 5 8 11 12 13 31 51 50 44 36 39 47 51 56 58 56 58 63 64 66 67 68 68 67 66 67 67 67 66 65 65 66 66 66 67 68 68 69 69 68 68 68 68 68 68 68 67 67 67 68 69 70 70 70 71 69 70 70 70 70 69 67 67 67 69 67 69 69 70 69 69 69 69 69 69 69 69 69 69 68 67 66 65 67 70 68 68
16 14 12 7 5 1 6 4 2 2 5 11 12 14 13 31 50 49 43 35 43 51 55 57 58 60 61 63 66 66 66 67 67 67 67 66 66 65 65 65 65 65 65 65 67 68 69 68 69 68 69 68 67 67 68 67 67 67 67 66 66 69 68 68 67 68 68 68 66 65 67 67 66 67 68 68 68 68 70 70 69 69 69 69 69 69 70 69 69 68 67 66 64 66 67 63 65
15 15 11 10 8 12 10 8 5 7 10 11 14 13 13 16 32 51 45 46 50 47 53 55 58 58 61 64 65 65 66 66 67 67 66 65 65 65 65 65 64 64 64 65 66 68 67 68 69 69 68 68 67 66 66 66 66 66 65 66 66 67 67 66 67 67 67 67 66 67 66 66 66 67 64 66 68 68 69 70 70 70 70 70 69 69 68 68 68 68 68 66 67 63 62 61 60
14 13 15 9 9 13 12 8 7 9 12 15 14 15 13 14 15 16 42 45 46 46 52 55 56 59 61 64 64 64 65 65 66 66 66 65 65 65 64 65 64 64 64 65 66 67 68 68 69 69 68 67 66 65 66 65 65 64 64 65 65 65 64 65 65 66 66 67 66 67 66 65 65 65 66 65 64 65 63 64 69 67 67 67 68 66 66 65 69 63 62 65 61 61 60 61 62
17 17 14 10 20 16 12 12 12 14 18 15 14 13 14 15 15 20 34 43 42 47 53 53 59 63 63 63 63 64 64 64 64 64 64 64 65 65 65 65 66 65 65 65 65 66 68 68 68 67 67 65 64 64 64 65 65 63 65 64 64 66 65 65 66 66 66 67 65 66 66 67 68 68 67 67 66 66 64 63 63 64 65 66 67 66 65 66 64 60 59 59 60 61 62 62 63
18 21 14 18 20 12 19 17 18 19 16 15 15 16 16 15 15 21 34 45 48 48 56 57 59 63 64 64 63 64 64 63 62 63 63 64 65 65 65 64 64 64 64 64 66 67 67 68 67 67 65 65 65 64 64 64 63 65 65 65 64 65 65 65 65 65 66 66 66 66 67 66 67 67 67 67 67 67 66 65 64 65 65 65 65 66 66 65 64 62 61 61 60 59 61 61 62
16 9 13 17 22 18 21 19 21 18 18 17 17 17 15 13 15 26 37 46 58 56 57 58 60 63 63 62 63 63 61 61 63 63 64 65 65 65 65 64 64 65 64 65 65 66 67 67 66 66 65 64 65 64 64 63 64 65 66 66 65 65 64 65 65 65 67 66 67 68 68 67 66 66 67 67 67 67 67 68 69 66 66 67 67 65 64 64 62 62 64 63 59 56 56 61 60
15 9 18 18 18 20 17 18 18 19 18 17 17 16 14 20 30 44 43 51 58 57 58 58 61 63 64 63 63 63 61 62 63 64 65 65 67 67 66 65 65 64 64 65 65 65 66 67 67 65 65 64 63 65 64 63 64 65 66 65 64 66 65 66 66 67 66 66 67 67 68 68 66 66 67 69 69 70 70 70 69 67 68 67 68 68 66 65 63 62 63 62 62 60 58 61 60
14 10 12 18 19 19 18 17 17 16 17 18 16 14 18 38 50 45 47 56 58 59 58 59 61 62 63 63 63 62 63 64 65 66 65 67 67 66 66 65 65 64 65 65 65 65 65 66 65 65 65 62 63 64 64 64 64 65 65 65 66 67 65 66 68 66 67 67 67 67 68 68 68 67 69 68 68 69 70 71 70 69 67 68 68 68 68 68 65 62 61 61 58 62 60 60 60
15 12 11 17 15 18 19 18 18 17 17 17 15 14 15 48 49 44 57 58 59 58 59 60 61 62 61 62 63 64 63 64 65 66 66 66 66 66 66 66 65 65 65 65 64 64 65 64 64 65 65 66 65 63 64 66 66 65 65 66 67 66 67 68 68 68 68 68 69 69 69 69 69 69 68 69 68 69 69 70 69 69 68 68 69 68 69 68 68 67 64 61 62 62 61 61 62
18 15 12 16 15 17 19 21 19 18 15 15 15 14 23 46 48 46 56 60 60 58 60 60 60 60 61 62 63 64 64 65 65 66 65 66 65 66 66 64 65 65 65 65 64 65 64 65 65 65 66 67 66 65 66 65 65 66 67 67 67 68 70 70 69 70 70 69 69 69 70 69 68 69 68 68 68 68 68 67 69 69 69 68 69 69 68 69 68 66 67 68 67 64 62 61 63
17 15 13 13 14 14 17 16 16 18 15 15 15 13 19 37 40 51 59 59 60 60 60 61 60 60 61 62 62 62 63 65 65 65 65 65 65 66 66 66 64 64 64 65 64 65 65 66 65 66 66 67 66 66 65 65 66 66 67 68 69 70 70 70 70 69 70 69 69 69 69 68 68 68 69 68 67 67 68 68 68 69 69 69 69 70 69 69 68 68 68 68 67 67 64 63 59
12 12 8 8 11 10 11 12 14 15 14 14 14 12 17 31 43 54 60 60 60 60 59 60 60 60 61 61 62 62 64 65 65 66 66 66 66 67 66 65 65 63 63 64 66 64 65 66 67 67 67 66 67 67 67 67 68 69 69 70 70 70 70 70 70 69 69 68 68 68 68 68 68 68 68 68 68 67 68 68 68 68 68 69 70 70 68 68 68 68 67 66 66 66 65 65 63
8 7 6 7 8 5 7 11 12 13 14 14 15 14 12 31 49 59 61 61 59 58 58 59 60 61 61 62 62 63 64 64 65 65 64 64 65 66 65 65 65 65 63 64 64 65 67 67 67 69 69 67 68 68 69 69 69 69 69 69 69 70 69 69 69 68 68 68 68 68 68 68 68 68 67 68 67 66 67 67 66 66 68 68 68 69 69 68 68 68 67 66 66 66 65 65 65
6 3 5 4 4 4 13 13 11 9 13 14 16 17 17 45 55 59 61 63 61 57 57 59 60 61 62 62 62 62 63 64 64 64 65 64 64 65 65 65 66 65 65 64 64 66 66 68 69 70 70 69 69 69 69 69 69 70 70 68 70 68 67 68 68 67 68 68 68 68 67 68 68 67 67 67 68 67 67 66 66 68 68 68 68 67 67 67 66 66 67 68 66 65 65 65 65
5 5 9 2 0 6 9 12 11 10 12 13 16 11 28 44 50 58 62 63 62 57 57 59 59 60 61 61 61 60 62 62 62 63 65 64 65 65 65 65 66 67 66 65 65 67 68 69 69 69 69 69 70 70 70 70 70 70 70 69 67 68 67 67 67 67 67 67 68 66 68 68 67 67 67 68 68 68 66 67 67 68 68 68 67 67 66 66 66 65 65 66 66 64 65 66 66
7 5 7 1 2 3 5 10 10 9 11 12 16 16 19 37 51 56 61 61 62 56 56 60 60 58 59 61 61 60 60 61 62 62 64 66 66 66 66 66 66 67 66 66 66 67 69 69 70 70 70 70 70 70 69 69 69 70 69 67 68 67 68 67 67 67 67 67 67 67 68 68 68 68 68 68 68 68 67 67 67 68 67 67 67 66 66 66 65 66 65 65 64 65 63 63 64
10 11 10 12 7 2 3 7 8 10 11 11 14 14 27 36 48 52 57 59 58 57 59 58 55 55 56 57 57 58 58 59 61 63 63 65 66 66 66 67 67 67 67 67 67 68 68 68 68 68 69 69 69 69 69 70 70 69 68 67 67 67 67 67 67 66 67 67 66 67 67 69 68 68 68 68 68 68 67 68 68 68 67 67 67 65 65 65 66 65 65 65 65 65 65 65 64
6 6 5 10 6 2 2 5 10 8 10 10 12 11 23 37 44 49 54 54 55 55 56 55 56 56 56 57 57 58 60 61 62 64 65 66 66 66 67 67 66 66 65 66 66 67 67 67 67 67 67 69 70 68 69 68 67 66 65 66 66 66 66 65 67 66 67 66 67 67 67 68 67 68 67 68 68 68 67 68 69 69 69 67 66 65 64 63 65 65 65 64 64 64 64 65 66
9 7 4 4 0 0 3 8 8 9 8 9 12 12 20 31 38 48 52 53 54 54 53 54 53 55 56 57 58 59 61 62 61 61 63 64 65 66 67 66 65 66 66 66 66 67 66 66 66 66 67 68 69 68 68 67 66 64 65 65 65 66 65 67 66 67 66 66 67 66 66 68 68 67 67 68 69 68 68 68 69 67 67 66 66 67 65 65 65 66 66 65 64 64 65 65 66
10 5 2 0 3 2 4 9 8 8 15 9 13 10 18 27 34 46 50 51 50 51 54 54 56 56 56 58 59 60 60 61 62 61 61 64 63 63 64 65 65 64 65 66 66 66 67 66 67 66 68 68 69 68 67 66 66 64 64 64 63 64 64 64 64 66 67 67 67 67 67 67 67 67 67 68 68 68 67 67 68 68 66 66 67 66 66 65 65 65 66 64 65 65 65 65 64
6 4 4 2 1 2 7 7 9 7 8 9 11 12 19 25 34 47 52 53 53 53 54 54 53 54 57 58 59 59 60 61 61 62 63 62 62 63 64 64 66 64 64 65 66 67 67 67 67 69 68 68 68 67 66 66 66 66 66 65 64 64 65 66 65 66 67 66 67 66 66 66 66 66 66 67 67 67 67 66 65 66 65 65 65 65 64 64 66 67 67 63 64 64 64 65 65
11 6 6 3 1 3 7 8 9 8 9 10 12 12 21 50 54 55 54 56 54 56 58 56 55 54 56 57 58 58 60 60 59 60 62 62 63 61 62 62 63 64 63 65 65 66 67 67 68 67 67 67 67 67 66 67 67 67 67 67 66 66 65 65 66 65 65 65 65 65 65 65 64 65 64 64 65 66 66 66 66 65 65 65 65 64 64 64 64 64 66 66 65 61 61 62 64
12 7 4 2 2 2 1 7 11 11 11 12 10 14 30 45 50 52 54 56 57 58 58 56 56 56 56 58 59 59 59 59 60 61 63 63 63 62 61 61 63 63 63 64 65 65 66 65 66 67 67 66 67 67 67 67 67 67 66 66 66 66 65 65 63 63 63 63 64 64 64 64 63 64 63 63 63 64 64 65 65 65 65 65 65 64 63 63 64 65 65 65 64 63 62 63 63
10 10 7 5 6 3 7 9 11 12 12 9 9 14 23 36 41 51 52 54 52 55 54 54 55 56 56 57 58 59 61 59 60 61 62 63 61 60 61 63 64 64 64 64 64 65 65 66 66 66 66 66 66 67 67 66 66 65 65 64 64 63 62 62 61 61 61 62 62 64 64 63 62 63 62 62 62 63 64 63 64 64 64 64 64 63 63 63 64 63 64 64 64 64 63 62 63
13 10 9 9 9 7 6 7 7 9 11 9 13 14 18 31 35 50 52 50 49 52 51 51 54 56 56 56 58 58 59 59 60 61 62 62 62 61 61 63 64 64 64 65 65 66 66 66 66 66 66 66 66 66 67 66 65 65 64 64 64 63 62 62 62 63 63 62 63 63 63 64 62 62 63 62 62 63 63 64 64 63 63 63 63 64 63 64 63 64 64 63 64 63 64 62 62
7 8 7 8 9 8 7 6 6 7 9 16 16 14 16 28 30 49 50 49 48 49 50 51 53 55 55 56 57 58 58 59 60 60 62 63 61 61 62 62 63 64 64 65 65 66 66 66 65 65 65 65 66 66 66 66 65 65 65 64 64 63 62 62 63 63 64 63 62 63 63 62 61 61 61 60 61 61 62 63 63 63 62 63 63 63 63 64 64 63 65 65 64 64 63 62 62
8 9 8 7 8 9 7 6 7 11 15 12 12 11 12 15 30 46 48 45 48 48 49 50 51 54 56 55 58 58 58 59 60 60 62 63 62 61 61 62 62 63 64 64 64 64 65 64 64 65 65 65 66 66 65 65 65 64 64 63 62 62 62 62 62 61 62 62 62 62 61 61 61 61 59 60 60 60 60 61 62 62 62 62 62 62 62 62 63 64 63 63 63 63 63 63 63
9 10 10 10 9 9 8 6 5 12 15 12 10 11 9 6 37 43 46 41 45 48 49 50 52 52 54 55 58 58 58 59 60 60 62 62 61 61 62 62 62 62 63 63 63 63 64 64 64 63 63 63 64 65 65 65 64 64 62 63 62 61 61 61 61 61 62 62 61 60 60 59 59 60 60 59 60 59 59 59 59 60 61 60 60 60 61 61 61 62 62 63 63 63 63 63 63
9 10 9 10 9 11 13 12 10 14 12 11 7 10 6 7 28 35 42 40 41 44 48 50 51 52 51 54 56 56 58 59 60 61 61 60 60 61 60 60 59 61 62 62 62 62 63 62 62 61 62 62 63 63 63 62 61 61 61 61 61 61 61 61 60 60 60 60 59 59 59 59 59 58 58 59 59 58 59 58 59 58 59 59 58 58 59 58 59 60 60 61 62 62 62 63 63
8 7 7 7 12 14 18 16 16 13 11 8 6 9 9 7 19 29 37 40 41 44 47 50 50 51 52 53 55 57 57 59 60 60 59 59 58 59 59 58 59 59 60 60 60 60 61 61 60 60 60 61 62 61 60 60 60 60 61 61 60 60 60 60 60 59 59 59 58 57 57 57 57 57 57 57 57 57 58 57 57 57 57 58 57 57 58 57 57 58 58 59 59 60 61 60 61
5 3 4 9 10 17 11 14 13 10 8 7 2 12 11 7 16 31 35 37 39 43 43 49 50 51 53 53 56 57 59 61 61 59 58 57 57 58 57 58 59 59 59 59 59 60 60 60 60 59 58 59 59 59 59 60 60 59 59 59 59 59 59 58 58 58 57 56 56 56 56 55 55 55 55 55 55 56 56 56 56 55 55 56 56 55 56 56 56 57 57 58 58 58 58 59 58
3 2 6 8 8 9 12 9 12 10 10 15 11 11 9 13 11 31 36 38 36 40 43 47 51 52 52 54 57 59 60 60 59 59 58 57 57 57 57 58 58 58 58 58 58 59 59 59 58 58 57 57 58 58 58 58 58 58 58 58 57 57 57 57 56 55 55 55 55 54 54 54 54 54 54 54 54 54 55 56 55 55 54 54 54 54 55 55 55 55 56 56 57 57 57 58 58
1 1 1 9 11 12 13 8 10 9 11 17 13 12 12 10 22 32 34 35 35 37 42 48 52 52 52 55 57 59 58 58 58 58 57 56 57 57 57 58 57 56 58 57 57 57 58 57 57 57 57 57 57 57 57 56 56 56 56 55 55 55 55 54 54 54 54 54 54 54 54 53 53 53 52 54 53 54 54 54 54 53 53 53 53 53 53 53 54 54 54 55 55 56 55 56 56
1 0 2 6 8 14 9 15 12 13 13 18 17 15 21 18 42 47 50 48 40 41 45 51 52 53 57 57 58 57 56 57 57 57 56 58 60 58 58 57 57 56 56 57 57 57 57 56 56 56 56 56 55 55 55 55 55 55 55 54 54 54 53 53 53 53 53 53 53 53 53 53 53 53 54 53 53 53 53 53 53 52 52 51 51 51 51 51 52 52 52 53 53 53 53 54 54
5 1 4 3 6 6 19 21 27 24 19 16 19 16 32 42 44 46 48 46 44 42 47 49 50 54 57 57 57 56 56 56 56 57 56 57 57 58 58 57 57 56 56 56 56 56 56 56 55 55 55 54 54 54 54 53 54 53 53 53 53 53 52 52 52 53 53 53 53 53 52 52 53 53 52 53 52 52 52 52 51 50 49 50 50 49 49 49 50 50 50 50 51 51 51 52 53
4 3 0 2 2 5 18 11 16 13 13 15 17 14 25 24 28 43 45 45 45 45 48 48 51 55 56 56 56 55 56 56 56 56 57 57 57 57 57 56 56 56 57 55 55 56 56 55 55 53 53 53 53 52 52 52 52 52 51 51 51 51 51 51 51 51 52 52 52 52 52 51 51 51 51 51 51 51 50 50 49 49 49 49 49 48 47 48 49 48 50 49 49 50 50 51 52
3 3 5 4 11 11 18 14 13 11 12 11 18 15 16 23 28 39 41 42 45 47 48 48 50 54 55 55 55 55 55 55 55 56 56 56 55 55 56 56 55 55 56 56 54 54 54 54 54 53 53 52 52 52 51 51 51 51 50 50 51 50 50 50 50 50 51 50 50 49 49 49 50 50 49 49 49 48 48 48 48 48 48 48 48 48 47 47 48 48 49 48 49 49 48 49 50
10 8 2 3 11 15 11 14 15 15 10 13 12 14 14 27 37 38 39 43 44 46 48 48 49 52 54 55 55 54 54 54 55 55 56 55 55 55 55 55 54 55 55 54 54 53 52 52 52 52 52 51 51 51 51 51 50 50 50 49 50 47 48 48 50 50 50 49 49 49 47 49 49 48 48 48 47 46 47 47 46 46 46 47 46 47 47 47 47 48 48 48 48 48 47 48 49
10 9 5 5 16 8 6 15 8 14 11 9 11 20 22 26 31 34 39 44 45 47 48 49 50 51 54 54 54 54 54 54 54 55 55 54 55 55 55 55 54 54 54 54 53 52 52 52 52 51 51 51 51 51 50 49 49 49 49 50 50 49 50 49 50 50 50 49 49 50 48 49 48 48 47 47 46 45 45 45 45 45 45 45 45 46 47 47 46 46 47 48 47 47 47 47 48
7 8 7 6 7 9 7 9 6 5 11 13 10 14 23 32 34 33 32 44 48 48 49 50 49 52 54 54 54 53 53 54 54 54 54 54 55 54 55 53 53 52 53 52 52 52 52 51 51 51 50 49 49 47 48 48 48 49 49 49 49 48 48 49 50 49 49 47 48 49 49 49 48 47 46 45 44 45 45 45 44 43 44 44 44 44 45 46 45 46 47 47 47 47 47 47 48